FW7313 Weather Reports


Display with metric or nautical units.
time (UTC)temp
F
wind
direction
speed
MPH
gust
MPH
rain 1hr
in
rain 24hr
in
rain mn
in
humidity
%
barometer
mb
20260505181453 80 185 4.0 10.0 0.00 0.00 0.00 74 1008.2
20260505180950 80 162 3.0 8.0 0.00 0.00 0.00 75 1008.0
20260505180446 80 159 3.0 8.0 0.00 0.00 0.00 75 1008.3
20260505175943 80 148 2.0 4.0 0.00 0.00 0.00 74 1008.2
20260505175434 80 204 2.0 4.0 0.00 0.00 0.00 74 1008.2
20260505174930 81 202 6.0 8.0 0.00 0.00 0.00 71 1008.3
20260505174428 80 129 3.0 8.0 0.00 0.00 0.00 72 1008.1
20260505173924 80 154 4.0 13.0 0.00 0.00 0.00 72 1008.0
20260505173420 80 174 4.0 7.0 0.00 0.00 0.00 73 1008.5
20260505172917 80 174 4.0 10.0 0.00 0.00 0.00 74 1008.4
20260505172416 79 287 3.0 14.0 0.00 0.00 0.00 74 1008.6
20260505171915 79 172 6.0 13.0 0.00 0.00 0.00 75 1008.4
20260505171412 79 147 4.0 8.0 0.00 0.00 0.00 74 1008.4
20260505170909 79 257 4.0 8.0 0.00 0.00 0.00 75 1008.5
20260505170405 78 152 1.0 3.0 0.00 0.00 0.00 78 1008.4
20260505165900 79 202 5.0 10.0 0.00 0.00 0.00 76 1008.7
20260505165356 79 202 8.0 11.0 0.00 0.00 0.00 73 1008.7
20260505164852 79 75 2.0 11.0 0.00 0.00 0.00 73 1008.4
20260505164349 79 112 3.0 6.0 0.00 0.00 0.00 73 1008.3
20260505163847 79 319 4.0 4.0 0.00 0.00 0.00 74 1008.3
20260505163346 79 184 3.0 7.0 0.00 0.00 0.00 74 1008.4
20260505162844 79 167 2.0 6.0 0.00 0.00 0.00 74 1008.4
20260505162339 80 261 3.0 8.0 0.00 0.00 0.00 73 1008.5
20260505161837 80 8 2.0 13.0 0.00 0.00 0.00 73 1008.5
20260505161333 80 168 7.0 17.0 0.00 0.00 0.00 72 1008.1
20260505160831 80 141 3.0 8.0 0.00 0.00 0.00 72 1008.2
20260505160324 79 152 2.0 6.0 0.00 0.00 0.00 74 1008.2
20260505153302 81 210 5.0 8.0 0.00 0.00 0.00 70 1008.0
20260505152759 81 131 3.0 4.0 0.00 0.00 0.00 70 1008.1
20260505152255 81 211 8.0 11.0 0.00 0.00 0.00 68 1008.0
20260505151749 81 224 4.0 11.0 0.00 0.00 0.00 69 1007.9
20260505151247 81 234 2.0 11.0 0.00 0.00 0.00 69 1008.0
20260505150744 81 170 3.0 7.0 0.00 0.00 0.00 70 1007.8
20260505150242 81 130 4.0 8.0 0.00 0.00 0.00 70 1007.8
20260505140211 77 192 1.0 6.0 0.00 0.00 0.00 78 1008.2
20260505130135 76 136 4.0 6.0 0.00 0.00 0.00 78 1007.7
20260505124625 75 136 3.0 7.0 0.00 0.00 0.00 81 1007.7
20260505124121 75 167 3.0 6.0 0.00 0.00 0.00 81 1007.7
20260505123617 75 215 3.0 3.0 0.00 0.00 0.00 81 1007.6
20260505123114 74 142 3.0 8.0 0.00 0.00 0.00 81 1007.6
20260505122611 74 175 4.0 7.0 0.00 0.00 0.00 81 1007.6
20260505122108 74 190 3.0 7.0 0.00 0.00 0.00 81 1007.6
20260505121605 74 305 1.0 6.0 0.00 0.00 0.00 81 1007.6
20260505121102 74 157 2.0 7.0 0.00 0.00 0.00 81 1007.5
20260505120558 74 186 1.0 1.0 0.00 0.00 0.00 81 1007.7
20260505120054 74 247 2.0 4.0 0.00 0.00 0.00 81 1007.5
20260505115548 74 167 1.0 4.0 0.00 0.00 0.00 81 1007.5
20260505115046 74 184 1.0 4.0 0.00 0.00 0.00 81 1007.7
20260505114543 74 152 3.0 4.0 0.00 0.00 0.00 81 1007.4
20260505114039 74 183 1.0 3.0 0.00 0.00 0.00 81 1007.5
20260505113535 74 177 4.0 7.0 0.00 0.00 0.00 81 1007.2
20260505113032 73 226 3.0 4.0 0.00 0.00 0.00 81 1007.3
20260505112528 73 310 1.0 1.0 0.00 0.00 0.00 81 1007.5
20260505112021 73 255 1.0 3.0 0.00 0.00 0.00 81 1007.4
20260505111514 73 163 2.0 4.0 0.00 0.00 0.00 81 1007.7
20260505111010 73 189 1.0 1.0 0.00 0.00 0.00 81 1007.6
20260505110507 73 233 0.0 1.0 0.00 0.00 0.00 81 1007.7
20260505101939 73 161 2.0 3.0 0.00 0.00 0.00 80 1007.5
20260505101433 73 30 0.0 6.0 0.00 0.00 0.00 80 1007.5
20260505100928 73 155 1.0 3.0 0.00 0.00 0.00 80 1007.5
20260505100426 73 200 2.0 3.0 0.00 0.00 0.00 80 1007.5
20260505095921 73 184 0.0 3.0 0.00 0.00 0.00 80 1007.5
20260505095418 73 235 1.0 6.0 0.00 0.00 0.00 80 1007.3
20260505094914 73 190 1.0 3.0 0.00 0.00 0.00 80 1007.5
20260505094412 73 225 2.0 3.0 0.00 0.00 0.00 80 1007.6
20260505093908 73 215 0.0 1.0 0.00 0.00 0.00 80 1007.7
20260505093404 73 137 3.0 4.0 0.00 0.00 0.00 80 1007.8
20260505092902 73 205 0.0 4.0 0.00 0.00 0.00 80 1007.7
20260505092400 73 297 2.0 1.0 0.00 0.00 0.00 80 1007.7
20260505091857 73 220 0.0 6.0 0.00 0.00 0.00 80 1007.5
20260505091355 73 179 1.0 6.0 0.00 0.00 0.00 80 1007.5
20260505090852 73 155 0.0 4.0 0.00 0.00 0.00 80 1007.7
20260505090351 73 249 1.0 3.0 0.00 0.00 0.00 80 1007.7
20260505085847 73 173 1.0 1.0 0.00 0.00 0.00 79 1007.7
20260505085345 73 215 1.0 3.0 0.00 0.00 0.00 79 1007.5
20260505084843 73 249 2.0 3.0 0.00 0.00 0.00 79 1007.9
20260505084341 73 331 1.0 3.0 0.00 0.00 0.00 78 1007.5
20260505083838 73 152 1.0 3.0 0.00 0.00 0.00 78 1007.6
20260505083336 74 223 1.0 4.0 0.00 0.00 0.00 77 1007.8
20260505082832 74 311 0.0 1.0 0.00 0.00 0.00 77 1007.7
20260505082328 74 305 0.0 4.0 0.00 0.00 0.00 77 1007.6
20260505081825 74 164 0.0 4.0 0.00 0.00 0.00 77 1007.7
20260505081322 74 183 0.0 4.0 0.00 0.00 0.00 76 1007.9
20260505080819 74 177 0.0 4.0 0.00 0.00 0.00 76 1008.0
20260505080314 74 267 0.0 8.0 0.00 0.00 0.00 76 1007.8
20260505075810 74 200 1.0 4.0 0.00 0.00 0.00 76 1007.9
20260505075307 73 122 0.0 7.0 0.00 0.00 0.00 77 1008.2
20260505074804 73 219 2.0 7.0 0.00 0.00 0.00 77 1008.0
20260505074301 73 228 0.0 3.0 0.00 0.00 0.00 77 1008.0
20260505073758 73 74 0.0 1.0 0.00 0.00 0.00 76 1007.9
20260505073257 73 157 0.0 0.0 0.00 0.00 0.00 76 1007.9
20260505072753 73 181 0.0 4.0 0.00 0.00 0.00 76 1007.8
20260505072249 73 281 0.0 0.0 0.00 0.00 0.00 76 1008.1
20260505071745 73 150 0.0 0.0 0.00 0.00 0.00 76 1008.1
20260505071242 73 229 0.0 4.0 0.00 0.00 0.00 76 1008.2
20260505070740 73 161 2.0 3.0 0.00 0.00 0.00 76 1008.2
20260505070236 73 244 1.0 3.0 0.00 0.00 0.00 76 1008.2
20260505065731 73 164 0.0 1.0 0.00 0.00 0.00 77 1008.6
20260505065229 73 169 0.0 0.0 0.00 0.00 0.00 77 1008.6
20260505064726 72 165 0.0 0.0 0.00 0.00 0.00 77 1008.6
20260505064223 72 201 0.0 0.0 0.00 0.00 0.00 77 1008.6
20260505063720 72 232 0.0 3.0 0.00 0.00 0.00 77 1008.7
20260505063216 72 183 0.0 4.0 0.00 0.00 0.00 77 1009.1
20260505062713 72 183 0.0 0.0 0.00 0.00 0.00 77 1009.1
20260505062211 72 173 0.0 4.0 0.00 0.00 0.00 77 1008.9
20260505061708 71 179 0.0 1.0 0.00 0.00 0.00 78 1009.1
20260505061206 71 187 0.0 0.0 0.00 0.00 0.00 78 1009.2
20260505060703 71 132 0.0 4.0 0.00 0.00 0.00 77 1008.9
20260505060159 71 212 0.0 0.0 0.00 0.00 0.00 77 1008.8
20260505055655 71 204 0.0 0.0 0.00 0.00 0.00 77 1009.1
20260505055151 71 226 0.0 1.0 0.00 0.00 0.00 77 1009.2
20260505054649 71 203 0.0 0.0 0.00 0.00 0.00 76 1008.9
20260505054147 71 197 0.0 0.0 0.00 0.00 0.00 76 1009.2
20260505053645 71 175 0.0 4.0 0.00 0.00 0.00 76 1009.2
20260505053140 71 91 0.0 0.0 0.00 0.00 0.00 76 1009.4
20260505052638 71 167 0.0 0.0 0.00 0.00 0.00 75 1009.2
20260505052135 72 213 0.0 4.0 0.00 0.00 0.00 75 1009.2
20260505051632 72 161 0.0 0.0 0.00 0.00 0.00 75 1009.3
20260505051130 72 177 0.0 0.0 0.00 0.00 0.00 74 1009.2
20260505050628 72 250 0.0 4.0 0.00 0.00 0.00 74 1009.2
20260505050126 72 152 0.0 3.0 0.00 0.00 0.00 75 1009.3
20260505041556 71 147 3.0 6.0 0.00 0.00 0.00 74 1009.5
20260505041053 71 173 3.0 6.0 0.00 0.00 0.00 74 1009.6
20260505040550 71 166 0.0 3.0 0.00 0.00 0.00 74 1009.7
20260505040047 71 157 0.0 3.0 0.00 0.00 0.00 73 1009.8
20260505035543 71 183 0.0 0.0 0.00 0.00 0.00 73 1009.9
20260505035040 71 197 0.0 4.0 0.00 0.00 0.00 73 1009.6
20260505034536 72 149 1.0 1.0 0.00 0.00 0.00 72 1010.0
20260505034033 72 178 0.0 6.0 0.00 0.00 0.00 72 1010.0
20260505033530 72 140 1.0 3.0 0.00 0.00 0.00 72 1009.9
20260505033028 72 203 0.0 1.0 0.00 0.00 0.00 71 1009.9
20260505032526 72 193 0.0 1.0 0.00 0.00 0.00 71 1010.0
20260505032022 72 173 0.0 3.0 0.00 0.00 0.00 71 1009.7
20260505031520 72 149 2.0 7.0 0.00 0.00 0.00 70 1009.8
20260505031016 72 176 0.0 4.0 0.00 0.00 0.00 70 1010.1
20260505030513 72 270 0.0 3.0 0.00 0.00 0.00 70 1010.0
20260505030009 72 129 0.0 3.0 0.00 0.00 0.00 70 1010.1
20260505025505 72 190 0.0 6.0 0.00 0.00 0.00 69 1010.1
20260505025004 72 164 0.0 0.0 0.00 0.00 0.00 69 1010.1
20260505024500 72 168 0.0 6.0 0.00 0.00 0.00 69 1009.9
20260505023958 72 171 1.0 3.0 0.00 0.00 0.00 69 1009.9
20260505023454 73 184 0.0 0.0 0.00 0.00 0.00 68 1009.9
20260505022952 73 173 0.0 4.0 0.00 0.00 0.00 68 1009.9
20260505022449 73 165 3.0 4.0 0.00 0.00 0.00 67 1009.9
20260505021947 73 165 1.0 3.0 0.00 0.00 0.00 67 1009.8
20260505021443 73 54 0.0 1.0 0.00 0.00 0.00 67 1010.0
20260505020938 73 214 3.0 6.0 0.00 0.00 0.00 67 1009.6
20260505020434 73 176 0.0 7.0 0.00 0.00 0.00 66 1010.1
20260505015931 73 183 0.0 1.0 0.00 0.00 0.00 66 1009.7
20260505015428 73 192 1.0 4.0 0.00 0.00 0.00 66 1009.5
20260505014925 73 207 2.0 6.0 0.00 0.00 0.00 65 1009.7
20260505014422 74 115 6.0 14.0 0.00 0.00 0.00 65 1009.3
20260505013919 74 151 0.0 1.0 0.00 0.00 0.00 64 1009.7
20260505013416 74 164 0.0 8.0 0.00 0.00 0.00 64 1009.6
20260505012914 74 190 7.0 8.0 0.00 0.00 0.00 64 1009.9
20260505012412 74 183 3.0 8.0 0.00 0.00 0.00 64 1009.8
20260505011908 74 118 2.0 7.0 0.00 0.00 0.00 64 1009.6
20260505011405 74 183 3.0 8.0 0.00 0.00 0.00 63 1009.6
20260505010901 74 175 3.0 6.0 0.00 0.00 0.00 63 1009.4
20260505010357 74 154 2.0 6.0 0.00 0.00 0.00 63 1009.5
20260505005853 74 194 3.0 8.0 0.00 0.00 0.00 63 1009.5
20260505005350 74 153 2.0 7.0 0.00 0.00 0.00 63 1009.6
20260505004848 75 156 5.0 11.0 0.00 0.00 0.00 62 1009.5
20260505004344 75 190 9.0 11.0 0.00 0.00 0.00 61 1009.5
20260505003841 75 143 2.0 7.0 0.00 0.00 0.00 61 1009.5
20260505003338 75 168 6.0 15.0 0.00 0.00 0.00 61 1009.5
20260505002834 75 147 0.0 13.0 0.00 0.00 0.00 60 1009.3
20260505002331 75 247 2.0 13.0 0.00 0.00 0.00 60 1009.5
20260505001830 76 225 8.0 10.0 0.00 0.00 0.00 59 1009.5
20260505001326 76 180 7.0 13.0 0.00 0.00 0.00 58 1009.6
20260505000824 76 152 0.0 1.0 0.00 0.00 0.00 58 1009.6
20260505000321 76 217 6.0 14.0 0.00 0.00 0.00 58 1009.4
20260504235818 77 161 2.0 11.0 0.00 0.00 0.00 57 1009.6
20260504235315 77 146 3.0 8.0 0.00 0.00 0.00 57 1009.5
20260504234811 77 147 5.0 14.0 0.00 0.00 0.00 56 1009.8
20260504234309 77 291 1.0 10.0 0.00 0.00 0.00 56 1009.7
20260504233805 77 169 1.0 11.0 0.00 0.00 0.00 56 1009.8
20260504233301 78 203 8.0 13.0 0.00 0.00 0.00 55 1009.8
20260504232758 78 201 0.0 13.0 0.00 0.00 0.00 56 1009.8
20260504232255 78 267 2.0 4.0 0.00 0.00 0.00 56 1009.9
20260504231752 77 180 10.0 13.0 0.00 0.00 0.00 55 1010.1
20260504231248 77 142 7.0 14.0 0.00 0.00 0.00 55 1010.1
20260504230744 78 181 1.0 11.0 0.00 0.00 0.00 55 1010.3
20260504230243 78 199 0.0 11.0 0.00 0.00 0.00 55 1010.0
20260504225741 77 222 1.0 7.0 0.00 0.00 0.00 56 1010.2
20260504225237 78 181 4.0 10.0 0.00 0.00 0.00 54 1010.3
20260504224734 79 163 1.0 11.0 0.00 0.00 0.00 54 1010.3
20260504224232 79 264 0.0 7.0 0.00 0.00 0.00 53 1010.4
20260504223728 78 219 2.0 10.0 0.00 0.00 0.00 54 1010.3
20260504223224 78 273 0.0 7.0 0.00 0.00 0.00 54 1010.3
20260504222721 78 141 4.0 6.0 0.00 0.00 0.00 54 1010.4
20260504222217 77 171 2.0 4.0 0.00 0.00 0.00 54 1010.8
20260504221715 77 211 0.0 4.0 0.00 0.00 0.00 54 1010.7
20260504221212 77 200 1.0 10.0 0.00 0.00 0.00 54 1010.7
20260504220708 77 152 1.0 6.0 0.00 0.00 0.00 54 1010.8
20260504220206 77 188 1.0 6.0 0.00 0.00 0.00 55 1010.9
20260504215702 78 165 3.0 10.0 0.00 0.00 0.00 54 1010.9
20260504215200 78 132 9.0 11.0 0.00 0.00 0.00 52 1010.7
20260504214655 78 206 2.0 6.0 0.00 0.00 0.00 52 1011.0
20260504214152 78 194 4.0 6.0 0.00 0.00 0.00 52 1011.0
20260504213649 78 272 0.0 8.0 0.00 0.00 0.00 52 1011.2
20260504213145 79 241 6.0 13.0 0.00 0.00 0.00 51 1011.1
20260504212642 79 256 5.0 11.0 0.00 0.00 0.00 51 1011.1
20260504212138 79 261 1.0 13.0 0.00 0.00 0.00 51 1011.1
20260504211636 80 145 4.0 15.0 0.00 0.00 0.00 50 1011.1
20260504211132 80 4 2.0 7.0 0.00 0.00 0.00 49 1011.2
20260504210630 80 145 0.0 3.0 0.00 0.00 0.00 48 1011.3
20260504210126 80 223 0.0 7.0 0.00 0.00 0.00 51 1011.4
20260504205624 80 163 3.0 8.0 0.00 0.00 0.00 48 1011.3
20260504205121 80 199 3.0 7.0 0.00 0.00 0.00 49 1011.4
20260504204620 80 286 4.0 6.0 0.00 0.00 0.00 47 1011.5
20260504204118 81 248 1.0 6.0 0.00 0.00 0.00 47 1011.5
20260504203616 82 218 4.0 7.0 0.00 0.00 0.00 45 1011.7
20260504203114 80 263 0.0 6.0 0.00 0.00 0.00 49 1011.6
20260504202608 80 162 1.0 6.0 0.00 0.00 0.00 47 1011.5
20260504202106 80 256 0.0 14.0 0.00 0.00 0.00 48 1011.6
20260504201603 81 262 0.0 3.0 0.00 0.00 0.00 46 1011.9
20260504201100 81 216 5.0 13.0 0.00 0.00 0.00 47 1011.8
20260504200556 81 273 0.0 10.0 0.00 0.00 0.00 46 1012.1
20260504200053 82 174 0.0 11.0 0.00 0.00 0.00 46 1011.9
20260504195549 82 249 4.0 11.0 0.00 0.00 0.00 44 1011.9
20260504195046 83 244 1.0 6.0 0.00 0.00 0.00 45 1012.0
20260504194543 81 228 0.0 6.0 0.00 0.00 0.00 48 1012.1
20260504194038 82 173 7.0 13.0 0.00 0.00 0.00 44 1012.1
20260504193535 83 123 3.0 6.0 0.00 0.00 0.00 43 1012.2
20260504193034 81 232 0.0 6.0 0.00 0.00 0.00 46 1012.6
20260504192532 81 179 4.0 8.0 0.00 0.00 0.00 44 1012.4
20260504192030 81 213 8.0 13.0 0.00 0.00 0.00 44 1012.6
20260504191527 82 184 0.0 8.0 0.00 0.00 0.00 44 1012.5
20260504191023 83 141 1.0 6.0 0.00 0.00 0.00 43 1012.5
20260504190520 82 161 1.0 3.0 0.00 0.00 0.00 44 1012.4
20260504190015 82 5 0.0 7.0 0.00 0.00 0.00 44 1012.4
20260504185513 83 165 5.0 11.0 0.00 0.00 0.00 43 1012.6
20260504185009 83 148 3.0 13.0 0.00 0.00 0.00 42 1012.7
20260504184504 82 224 2.0 10.0 0.00 0.00 0.00 46 1012.6
20260504184000 83 213 4.0 15.0 0.00 0.00 0.00 45 1012.6
20260504183457 82 159 1.0 4.0 0.00 0.00 0.00 43 1012.6
20260504182955 80 27 0.0 8.0 0.00 0.00 0.00 46 1012.6
20260504182452 80 136 6.0 8.0 0.00 0.00 0.00 46 1012.8
20260504181949 81 135 1.0 13.0 0.00 0.00 0.00 46 1013.0